Weather History for New Bedford, MA

Change the Weather History Date:

Wednesday, January 8, 2014

  Actual Average Record
Temperature  
Mean Temperature 16 °F -  
Max Temperature 23 °F 37 °F 63 °F (2008)
Min Temperature 8 °F 22 °F 0 °F (1968)
Degree Days  
Heating Degree Days 50    
Moisture  
Dew Point 0 °F    
Average Humidity 54    
Maximum Humidity 77    
Minimum Humidity 35    
Precipitation  
Precipitation 0.00 in - - ()
Sea Level Pressure  
Sea Level Pressure 30.42 in    
Wind  
Wind Speed 8 mph (WSW)    
Max Wind Speed 14 mph    
Max Gust Speed 20 mph    
Visibility 10 miles    
Events      
Averages and records for this station are not official NWS values.
T = Trace of Precipitation, MM = Missing Value Source: NWS Daily Summary

Daily Weather History Graph

Daily Weather History Graph

Search for Another Location

Airport:

Trip Planner

Search our weather history database for the weather conditions in past years. The results will help you decide how hot, cold, wet, or windy it might be!

Date:

Astronomy

Jan. 08, 2014 Rise Set
Actual Time 7:10 AM EST 4:30 PM EST
Civil Twilight 6:39 AM EST 5:01 PM EST
Nautical Twilight 6:04 AM EST 5:36 PM EST
Astronomical Twilight 5:31 AM EST 6:10 PM EST
Moon 11:24 AM EST (1/8) 12:09 AM EST (1/8)
Length of Visible Light 10h 22m
Length of Day
9h 20m
First Quarter, 56% of the Moon is Illuminated
Jan 8
First Quarter
Jan 15
Full
Jan 24
Last Quarter
Jan 30
New
Feb 6
First Quarter

Hourly Weather History & Observations

Time (EST) Temp. Windchill Dew Point Humidity Pressure Visibility Wind Dir Wind Speed Gust Speed Precip Events Conditions
12:53 AM 8.1 °F -6.2 °F -7.1 °F 50% 30.30 in 10.0 mi WSW 10.4 mph 19.6 mph N/A   Clear
1:53 AM 8.1 °F -8.4 °F -7.1 °F 50% 30.33 in 10.0 mi WSW 13.8 mph 19.6 mph N/A   Clear
2:53 AM 8.1 °F -3.2 °F -6.0 °F 53% 30.36 in 10.0 mi WSW 6.9 mph - N/A   Clear
3:53 AM 8.1 °F -5.3 °F -5.1 °F 55% 30.37 in 10.0 mi West 9.2 mph - N/A   Clear
4:53 AM 8.1 °F -7.0 °F -4.0 °F 58% 30.38 in 10.0 mi West 11.5 mph - N/A   Clear
5:53 AM 9.0 °F -5.9 °F -4.0 °F 56% 30.41 in 10.0 mi West 11.5 mph - N/A   Clear
6:53 AM 8.1 °F 1.4 °F -2.9 °F 61% 30.42 in 10.0 mi West 3.5 mph - N/A   Clear
7:53 AM 9.0 °F 0.6 °F -0.9 °F 64% 30.45 in 10.0 mi WSW 4.6 mph - N/A   Clear
8:53 AM 12.0 °F -0.4 °F -2.0 °F 53% 30.47 in 10.0 mi West 9.2 mph - N/A   Clear
9:53 AM 15.1 °F 1.1 °F -2.0 °F 47% 30.50 in 10.0 mi West 12.7 mph - N/A   Clear
10:53 AM 18.0 °F 6.1 °F -0.0 °F 45% 30.48 in 10.0 mi West 10.4 mph - N/A   Clear
11:53 AM 19.9 °F 8.6 °F -0.0 °F 42% 30.43 in 10.0 mi West 10.4 mph - N/A   Clear
12:53 PM 21.9 °F 11.0 °F -0.9 °F 37% 30.40 in 10.0 mi WSW 10.4 mph 17.3 mph N/A   Clear
1:53 PM 23.0 °F 13.1 °F -0.9 °F 35% 30.40 in 10.0 mi West 9.2 mph - N/A   Clear
2:53 PM 23.0 °F 12.4 °F -0.0 °F 37% 30.40 in 10.0 mi West 10.4 mph - N/A   Clear
3:53 PM 21.9 °F 14.5 °F -0.0 °F 38% 30.40 in 10.0 mi WSW 5.8 mph - N/A   Clear
4:53 PM 19.9 °F 14.9 °F -0.0 °F 42% 30.42 in 10.0 mi SW 3.5 mph - N/A   Clear
5:53 PM 17.1 °F - 3.9 °F 56% 30.43 in 10.0 mi Calm Calm - N/A   Clear
6:53 PM 15.1 °F 7.7 °F 7.0 °F 70% 30.44 in 10.0 mi SSW 4.6 mph - N/A   Clear
7:53 PM 14.0 °F - 5.0 °F 67% 30.46 in 10.0 mi Calm Calm - N/A   Clear
8:53 PM 14.0 °F - 6.1 °F 71% 30.46 in 10.0 mi Calm Calm - N/A   Partly Cloudy
9:53 PM 12.0 °F - 6.1 °F 77% 30.46 in 10.0 mi Calm Calm - N/A   Mostly Cloudy
10:53 PM 14.0 °F - 6.1 °F 71% 30.45 in 10.0 mi Calm Calm - N/A   Mostly Cloudy
11:53 PM 14.0 °F - 5.0 °F 67% 30.45 in 10.0 mi Calm Calm - N/A   Scattered Clouds